Flag for U.S.A. Weather past 2 weeks in Clearwater, Florida, U.S.A.

Now
71 °F

Overcast.


Feels Like: 75 °F
Forecast: 53 / 69 °F
Wind: 3 mph from East

Location: St. Petersburg / Clearwater International Airport

Current Time: Dec 26, 2014 at 6:02:35 PM

Latest Report: Dec 26, 2014 at 4:53 PM


Visibility: 10 mi

Pressure: 30.19 "Hg

Humidity: 63%

Dew point: 58 °F

Location of ClearwaterLocation

Historic Weather in Clearwater — Graph

°F

Clearwater temperature yesterday

Maximum temperature yesterday: 65 °F (at 12:53 AM)
Minimum temperature yesterday: 58 °F (at 8:53 PM)
Average temperature yesterday: 61 °F

Past Weeks' High & Low Weather Summary

 TemperatureHumidityPressure
High82 °F (Dec 23, 2:53 PM)100% (Dec 15, 6:01 AM)30.30 "Hg (Dec 15, 6:01 AM)
Low42 °F (Dec 15, 6:01 AM)31% (Dec 14, 10:53 AM)29.81 "Hg (Dec 24, 3:53 PM)
Average62 °F78%30.09 "Hg
* Reported Dec 11 4:53 PM — Dec 26 4:53 PM, Clearwater, Weather by CustomWeather, © 2014

Note: Actual official high and low records may vary slightly from our data, if they occured in-between our weather recording intervals... More about our weather records

Advertising

Clearwater weather history for previous 24 hours

 ConditionsComfort  
Time TempWeatherWind HumidityBarometerVisibility
4:53 PM
Dec 26
71 °FOvercast.3 mph63%30.19 "Hg10 mi
3:53 PM71 °FOvercast.3 mph57%30.18 "Hg10 mi
2:53 PM73 °FOvercast.3 mph51%30.17 "Hg10 mi
1:53 PM71 °FMostly cloudy.No wind53%30.18 "Hg10 mi
12:53 PM70 °FSunny.5 mph57%30.20 "Hg10 mi
11:53 AM67 °FPassing clouds.6 mph68%30.23 "Hg10 mi
10:53 AM64 °FOvercast.7 mph73%30.24 "Hg10 mi
9:53 AM62 °FPartly sunny.7 mph75%30.26 "Hg10 mi
8:53 AM59 °FSunny.7 mph78%30.24 "Hg10 mi
7:53 AM57 °FSunny.7 mph81%30.23 "Hg10 mi
6:53 AM57 °FPassing clouds.8 mph81%30.22 "Hg10 mi
5:53 AM57 °FOvercast.9 mph81%30.21 "Hg10 mi
4:53 AM57 °FOvercast.6 mph81%30.21 "Hg10 mi
3:53 AM57 °FOvercast.8 mph81%30.22 "Hg10 mi
2:53 AM56 °FPassing clouds.9 mph81%30.21 "Hg10 mi
1:53 AM57 °FPassing clouds.12 mph81%30.21 "Hg10 mi
12:53 AM57 °FClear.9 mph81%30.21 "Hg10 mi
11:53 PM
Dec 25
58 °FClear.9 mph81%30.23 "Hg10 mi
10:53 PM59 °FClear.10 mph75%30.24 "Hg10 mi
9:53 PM58 °FClear.8 mph81%30.24 "Hg10 mi
8:53 PM58 °FClear.5 mph81%30.24 "Hg10 mi
7:53 PM59 °FClear.5 mph75%30.23 "Hg10 mi
6:53 PM59 °FClear.9 mph75%30.20 "Hg10 mi
Weather by CustomWeather, © 2014

See weather overviewHow to use our weather pages